Regional Weather Roundup
Issued by NWS State College, PA

Home | Current Version | Previous Version | Graphics & Text | Print | Product List | Glossary On
Versions: 1 2 3 4 5 6 7 8 9 10 11 12 13 14 15 16 17 18 19 20 21 22 23 24 25 26 27 28 29 30 31 32 33 34 35 36 37 38 39 40 41 42 43 44 45 46 47 48 49 50
000
ASUS41 KCTP 270810
RWRCTP

REGIONAL WEATHER ROUNDUP
NATIONAL WEATHER SERVICE STATE COLLEGE PA
300 AM EST FRI FEB 27 2015

Note: "fair" indicates few or no clouds below 12,000 feet with no
significant weather and/or obstructions to visibility.

* = STATION THAT DOES NOT REPORT PRECIPITATION /E.G. RAIN...SNOW...ETC/
    THUNDER OR FOG.

PAZ002>004-007>009-013>016-020>023-029>032-270900-
WESTERN PENNSYLVANIA

CITY           SKY/WX    TMP DP  RH WIND       PRES   REMARKS
ERIE           PTCLDY     4  -3  73 NW5       30.33R WCI  -5
MEADVILLE        N/A      1  -4  79 NW5       30.24R WCI  -9
FRANKLIN*      CLEAR      1  -4  78 CALM      30.23R
NEW CASTLE     FAIR       2  -1  87 CALM      30.31R
BEAVER COUNTY  NOT AVBL
BUTLER*        PTCLDY     3   1  92 CALM      30.26R
PITTSBURGH INT PTCLDY     7   1  76 NW9       30.27R WCI  -7
PITTSBURGH     LGT SNOW   9   2  73 NW7       30.25R WCI  -2
INDIANA*       CLOUDY     9   5  85 NW5       30.25R WCI   0
LATROBE        CLOUDY    10   7  85 CALM      30.27R
WASHINGTON CO* MOCLDY     9   1  72 CALM      30.27S
$$

PAZ004>006-010>012-017>019-024>028-033>037-041-042-045-046-049>053-270900-
CENTRAL PENNSYLVANIA

CITY           SKY/WX    TMP DP  RH WIND       PRES   REMARKS
BRADFORD       FLURRIES  -1  -6  79 NW3       30.12R
DUBOIS         PTCLDY     5   1  83 W7        30.15R WCI  -7
CLEARFIELD     MOCLDY     9   3  77 NW6       30.18R WCI  -1
JOHNSTOWN      LGT SNOW   8   4  83 NW13      30.10R FOG     WCI  -8
ALTOONA        CLOUDY    14   5  67 NW10      30.17R WCI   1
STATE COLLEGE  LGT SNOW  15  12  88 NE7       30.18R WCI   5
WILLIAMSPORT   CLOUDY    14   4  64 NW6       30.26R WCI   5
SELINSGROVE    CLOUDY    17   7  64 NE8       30.24R WCI   7
FT INDIANTOWN  CLOUDY    20  11  66 NE5       30.20R WCI  14
CAPITAL CITY   CLOUDY    22  13  68 NW7       30.20R WCI  13
HARRISBURG     CLOUDY    24  14  65 NW7       30.20R
YORK           CLOUDY    26  18  71 CALM      30.18R
$$

PAZ038>040-043-044-047-048-054-055-060>062-067>071-270900-
EASTERN PENNSYLVANIA

CITY           SKY/WX    TMP DP  RH WIND       PRES   REMARKS
SCRANTON       MIX PCPN  12   2  64 N10       30.19R WCI  -1
MOUNT POCONO   MOCLDY     7   2  80 NW8       30.06R WCI  -6
ALLENTOWN      CLOUDY    17   8  67 CALM      30.20R
QUAKERTOWN*    CLOUDY    19  12  73 N5        30.19S WCI  13
READING        CLOUDY    21  10  62 N6        30.20R WCI  13
LANCASTER      CLOUDY    24  15  68 NE7       30.18R
COATESVILLE    FLURRIES  25  19  80 NE5       30.18R
POTTSTOWN      CLOUDY    21  12  68 CALM      30.22R
BLUE BELL      MOCLDY    25  16  68 CALM      30.20R
DOYLESTOWN     CLOUDY    19  12  74 N6        30.20R WCI  11
WILLOW GROVE   NOT AVBL
NORTH PHILA    CLOUDY    25  13  60 N9        30.23R
PHILADELPHIA   CLOUDY    26  16  65 N6        30.22R
$$


USA.gov is the U.S. government's official web portal to all federal, state and local government web resources and services.